Theta_e
310 318 332 337 337 337 337 338 337 337 336 333 331 329 328 330 332 333 334 333 335 334 333 331 331 329 326 323 322 318 314 311 312 308 307 308 309 308 307 306 305 305 305
307 314 324 335 336 336 336 334 334 336 335 333 333 331 329 330 331 332 333 333 333 335 333 332 328 328 326 326 322 318 313 312 312 307 306 301 304 307 308 307 306 304 304
306 309 316 332 335 334 335 333 335 335 334 334 331 331 331 329 328 330 331 331 331 334 333 333 329 329 327 325 322 320 316 310 311 312 308 302 301 303 306 308 306 305 304
307 309 310 315 333 333 337 335 335 336 335 331 328 328 326 324 326 329 331 332 332 332 333 332 330 329 326 324 323 321 318 315 310 312 313 313 309 303 300 306 307 307 307
307 308 312 312 322 335 336 336 335 335 333 330 330 329 327 328 329 327 329 330 332 332 333 332 330 327 326 324 323 320 318 319 315 312 311 311 312 311 307 300 303 306 307
307 308 310 315 316 334 336 336 334 333 331 330 330 329 326 325 324 326 328 329 329 331 332 333 331 328 327 324 323 322 319 317 319 317 316 312 309 307 307 305 303 304 305
309 311 310 310 317 321 334 335 334 330 330 329 329 330 329 326 325 325 325 329 329 329 330 332 331 329 328 327 325 320 318 318 317 319 317 316 314 312 311 309 306 304 305
306 307 310 312 315 318 323 332 332 331 329 329 329 330 330 330 327 326 326 326 329 332 332 332 331 329 328 327 324 321 319 318 317 318 320 317 316 314 313 311 309 303 304
303 303 306 309 313 315 317 319 329 331 330 329 329 330 330 330 328 327 327 327 328 332 332 332 330 328 328 327 325 322 320 319 317 318 320 319 318 315 315 316 314 308 302
300 302 304 305 308 311 313 316 319 325 331 329 329 329 329 330 330 329 327 326 327 330 331 331 329 328 328 327 325 322 322 320 319 319 318 319 319 316 315 317 315 313 309
297 298 301 303 305 308 310 313 316 318 322 330 330 329 329 330 330 329 329 327 327 327 329 330 329 328 327 325 323 322 321 321 319 319 318 318 320 318 314 316 315 314 313
294 296 298 299 300 303 304 307 311 314 320 325 330 330 329 329 329 329 329 328 327 328 328 329 330 328 327 325 323 321 322 321 319 319 318 319 321 318 316 316 314 314 313
291 293 294 294 295 297 299 301 305 308 313 318 325 329 329 328 327 329 329 329 329 328 329 328 329 328 327 325 324 323 322 322 321 320 319 320 321 318 317 315 315 315 316
288 289 290 291 292 294 295 298 300 305 308 312 317 324 329 329 329 329 329 328 328 330 329 330 329 330 328 327 325 324 323 323 323 322 323 323 321 319 317 314 315 315 313
285 286 287 288 290 291 293 295 297 300 304 308 312 320 328 331 330 330 330 330 329 328 330 330 330 331 329 327 325 325 323 323 322 323 323 322 320 312 314 316 314 314 313
284 285 286 287 288 288 291 292 294 297 301 304 310 319 323 328 330 330 330 329 329 330 329 329 329 329 330 312 307 317 324 324 323 322 322 322 312 311 303 303 304 311 312
283 284 285 286 287 289 290 290 292 296 300 306 313 320 324 326 327 330 329 329 328 330 329 329 329 328 330 306 304 304 325 324 324 324 323 323 324 312 317 303 300 302 301
284 284 285 286 287 288 289 290 293 296 299 303 309 314 318 324 325 328 328 328 329 329 328 328 329 328 329 305 303 301 321 325 325 325 325 324 323 320 319 317 312 312 311
285 285 286 286 287 287 288 290 292 293 295 298 301 305 310 312 321 324 326 328 327 327 327 328 327 327 328 303 302 303 320 323 325 326 326 326 323 314 304 317 315 313 314
285 284 285 286 287 287 288 289 290 291 292 296 299 304 307 309 311 319 325 326 326 325 324 321 323 316 325 304 301 304 323 322 323 325 326 306 321 307 299 315 316 314 313
285 285 285 285 285 286 287 288 289 288 293 296 299 302 303 305 309 312 320 324 323 322 322 321 322 323 321 321 300 299 319 323 322 322 323 326 303 303 300 305 318 315 314
285 286 284 285 285 285 286 287 287 289 293 295 296 298 301 301 302 310 312 317 319 318 318 317 318 319 320 306 304 298 298 311 321 321 322 324 304 303 298 301 307 299 298
286 287 285 285 286 285 285 285 287 289 291 292 292 295 296 299 297 296 295 294 295 305 315 314 314 315 316 317 301 299 296 294 305 320 316 308 301 300 297 298 297 294 306
286 287 285 285 285 286 286 286 289 289 290 289 290 292 292 294 295 295 293 290 289 291 291 291 297 309 313 315 316 311 304 293 295 300 308 300 299 299 306 297 295 308 311
287 287 286 285 285 287 287 289 290 290 288 288 289 289 290 291 292 293 292 291 289 287 287 287 290 292 295 301 297 306 309 307 304 303 310 302 304 305 306 306 302 304 305
287 287 287 286 286 287 286 289 290 290 289 287 287 287 288 288 289 289 290 289 288 288 287 287 287 290 288 289 290 291 294 294 291 299 307 303 302 303 304 303 301 299 297
Wind_Speed
13 11 14 21 19 15 11 14 15 17 12 9 9 9 8 5 3 8 10 8 6 11 10 7 5 5 5 5 6 5 6 3 3 5 4 3 3 5 5 4 5 4 3
13 13 13 19 18 18 16 13 12 14 13 10 8 8 10 7 4 9 11 11 7 9 9 9 7 7 6 6 6 6 4 3 4 4 4 3 2 3 3 4 5 6 5
17 12 11 17 17 17 17 16 17 16 13 12 9 8 7 6 5 7 11 13 14 8 11 11 10 8 6 6 7 6 7 5 4 7 5 3 5 5 3 4 4 6 3
13 10 16 13 17 15 18 17 16 17 14 15 14 17 12 11 8 8 8 11 14 12 10 12 12 9 4 5 7 6 7 6 8 4 8 1 4 4 3 3 4 6 5
7 11 7 15 14 16 14 14 14 16 14 15 15 12 12 8 6 7 13 13 15 15 12 11 13 11 8 8 8 7 7 4 7 6 4 3 3 3 3 4 4 3 5
10 7 10 4 6 19 18 16 15 14 15 16 16 17 16 12 7 7 9 9 9 10 15 13 13 13 13 11 11 9 10 7 4 7 5 4 4 4 3 2 6 8 5
13 10 11 3 2 2 19 18 18 15 17 18 17 17 17 15 14 9 9 11 10 10 15 18 16 13 15 12 11 10 11 9 6 6 5 5 5 4 4 4 4 4 3
16 16 16 13 14 13 8 16 18 17 16 17 18 16 17 11 10 11 9 9 9 11 14 14 14 16 15 12 12 10 10 11 8 8 6 5 5 5 4 5 4 3 3
14 15 15 15 12 14 14 12 10 14 16 17 16 16 15 15 13 14 12 8 10 9 12 14 14 14 15 15 14 12 13 12 12 12 8 7 5 5 4 4 3 5 5
15 14 15 16 16 15 14 14 12 5 14 14 15 14 13 15 13 13 15 15 9 7 14 15 16 15 15 15 15 12 12 13 11 10 12 10 7 5 5 5 4 3 5
16 14 12 14 15 15 15 15 14 11 6 16 15 16 15 15 15 13 15 15 12 13 8 15 16 16 16 15 14 14 14 16 14 13 14 15 11 8 5 5 5 4 4
17 15 14 13 13 14 14 16 17 15 13 7 16 17 17 17 16 16 15 14 14 12 14 11 16 17 17 16 17 17 15 17 17 16 16 17 12 13 9 6 7 6 5
19 17 16 15 14 14 14 15 16 17 16 15 11 17 17 17 18 17 15 16 14 14 13 15 15 16 17 17 17 18 17 17 17 17 18 19 17 15 12 9 9 8 7
19 18 16 16 16 15 15 14 15 16 18 18 16 15 18 18 17 17 16 17 16 13 14 13 14 16 16 17 17 17 17 17 17 18 18 18 18 18 17 13 11 10 9
19 18 17 15 15 16 16 16 15 16 16 18 17 18 13 18 17 18 17 16 16 17 15 13 13 16 14 13 17 18 17 17 18 17 17 18 19 20 18 13 15 12 9
18 18 17 17 16 17 15 16 16 16 16 18 18 18 17 14 16 16 16 16 17 17 18 19 18 16 13 18 18 17 17 19 20 18 18 19 19 19 20 20 18 18 16
18 18 17 17 15 15 14 15 16 16 16 15 16 17 15 14 14 15 16 16 16 15 17 17 17 17 17 17 21 22 16 16 17 18 17 17 16 19 17 20 18 20 19
19 18 16 16 16 15 14 14 14 13 14 13 14 12 13 13 12 11 14 14 13 15 14 16 18 16 14 18 20 21 20 18 18 19 21 19 20 18 21 19 18 17 16
15 14 16 16 15 14 14 13 12 12 12 11 12 13 11 9 8 12 10 10 10 10 11 13 16 16 15 18 20 17 16 19 20 19 21 21 21 23 23 21 20 21 19
15 16 18 15 13 15 15 12 12 12 12 13 12 10 9 9 9 10 9 9 9 12 8 6 6 9 10 13 18 17 13 17 15 18 19 22 24 23 22 23 21 19 20
14 15 15 14 15 15 14 13 13 15 14 13 12 11 10 9 6 7 8 7 9 7 9 10 11 13 12 12 15 18 15 14 14 16 16 17 27 24 26 30 21 22 16
12 12 16 14 13 15 15 16 18 16 14 12 12 12 11 10 10 6 6 8 6 7 8 8 8 8 10 14 13 17 20 19 16 17 15 19 23 30 26 26 25 16 10
9 8 11 14 13 13 15 16 16 16 15 15 14 13 12 13 14 14 13 10 12 10 7 7 8 8 8 9 14 17 20 22 17 16 19 22 18 26 25 29 23 14 8
13 12 14 16 16 18 17 16 16 17 16 17 16 13 14 14 12 11 10 12 11 9 9 9 10 8 6 7 7 7 8 15 12 16 10 9 10 13 18 13 8 12 10
12 12 12 14 16 15 17 17 16 17 18 16 16 15 12 14 12 11 9 10 11 11 8 9 7 8 10 10 17 11 9 9 12 12 11 2 4 9 9 8 9 7 7
15 14 15 16 16 17 17 17 18 18 16 13 13 12 11 10 10 10 8 9 8 13 20 21 17 8 15 19 17 14 9 9 5 5 11 6 7 8 8 8 7 6 6
Wind_Direction
195 183 163 158 164 167 163 172 167 166 159 173 156 160 179 187 187 145 152 172 174 171 163 167 173 157 164 172 152 142 149 139 136 102 98 72 97 146 157 185 141 159 250
223 181 174 151 164 167 166 165 177 167 174 166 167 175 175 190 200 147 159 170 192 185 173 166 176 181 169 174 154 150 152 139 143 144 131 153 240 253 189 190 154 180 142
188 187 168 152 169 171 172 174 182 176 183 152 154 161 162 227 191 166 169 172 183 200 183 172 175 196 168 172 167 162 170 161 175 181 171 149 204 144 209 203 179 169 202
175 193 165 173 174 177 172 176 185 180 179 156 169 171 173 192 218 158 165 170 177 197 194 176 172 185 178 175 173 174 182 161 183 233 235 334 126 186 149 209 203 169 220
212 177 203 176 179 170 174 176 176 183 172 171 175 177 179 192 203 180 182 176 174 188 197 185 176 176 194 190 186 182 195 195 182 203 210 213 206 245 154 178 194 186 193
198 198 179 234 193 169 172 172 176 175 171 179 184 185 192 200 202 194 177 181 190 189 186 190 184 183 188 187 194 192 200 209 202 194 195 190 178 209 215 234 179 184 201
50 53 34 64 238 299 166 173 169 179 178 183 188 195 198 201 208 205 204 181 190 194 203 185 184 187 190 187 182 185 201 210 211 209 196 195 204 219 195 220 184 163 174
32 20 19 11 357 358 15 174 180 175 184 187 192 196 204 204 199 205 212 208 201 191 196 197 198 184 181 186 181 189 201 206 214 220 224 198 212 208 221 200 168 171 162
34 20 5 357 355 352 347 357 212 190 185 196 194 202 204 207 207 208 221 219 217 192 194 192 195 203 186 188 190 196 197 200 207 219 218 226 210 212 224 219 208 160 196
14 13 1 354 349 342 331 330 329 252 201 197 202 200 206 213 213 209 214 222 229 229 190 188 196 196 202 191 191 196 198 200 206 210 216 220 224 210 217 204 223 223 194
7 352 348 343 337 331 325 320 321 307 283 201 198 203 206 214 213 213 217 220 220 227 237 197 196 199 201 197 196 202 201 202 205 208 213 219 217 220 217 198 196 224 209
352 350 337 331 327 328 327 320 320 318 312 268 210 208 210 201 218 221 210 212 220 217 223 221 198 199 196 197 200 202 203 207 204 206 212 219 213 215 219 199 200 198 211
344 339 334 326 321 318 318 312 308 307 306 299 256 217 212 212 206 222 218 214 211 216 217 217 201 204 198 201 203 204 208 211 210 209 211 217 209 209 212 214 202 203 210
339 334 329 321 319 320 315 310 303 303 303 304 302 244 211 212 213 213 219 215 216 213 215 216 209 201 203 201 202 204 210 214 216 214 218 216 212 208 208 211 209 201 205
337 330 326 323 321 319 316 314 308 300 297 288 280 263 225 209 215 216 214 217 216 221 221 222 208 208 208 204 202 204 209 216 219 216 216 219 219 211 207 204 211 209 199
337 332 328 328 323 313 316 312 306 299 299 293 290 290 227 213 209 218 217 215 218 217 222 222 216 213 206 200 207 208 211 213 219 216 216 220 219 215 206 208 203 207 204
343 341 337 331 320 316 318 311 305 296 287 286 284 281 233 214 217 209 219 219 221 221 220 222 221 212 211 206 196 206 216 217 219 218 218 220 221 214 211 213 211 212 207
343 344 339 329 326 324 319 311 304 309 306 302 307 324 325 217 213 213 215 219 222 226 219 219 224 220 214 192 199 201 215 222 220 221 220 219 219 214 213 209 213 221 211
338 338 336 328 324 331 328 321 326 329 325 325 322 318 326 329 294 214 213 216 219 232 226 228 226 222 220 202 199 198 214 225 229 227 225 218 216 218 202 209 212 220 224
340 340 335 327 334 343 334 341 344 339 339 330 328 322 334 335 330 320 220 218 218 216 197 222 229 238 232 206 205 202 219 227 231 236 234 222 218 211 198 205 213 215 220
338 344 338 349 345 341 344 359 355 354 339 344 338 355 351 329 312 310 318 228 223 235 225 217 219 226 228 238 206 206 220 229 234 231 229 231 215 206 196 203 210 212 209
351 360 345 353 348 351 357 5 7 346 350 2 6 6 8 14 6 343 328 304 251 224 226 228 236 236 239 242 236 223 220 239 242 241 243 239 216 206 194 195 204 196 178
344 19 359 351 6 4 6 4 2 358 1 17 14 17 15 34 31 34 26 28 13 345 260 227 232 236 235 240 237 233 228 233 243 247 247 240 226 208 195 194 190 177 180
9 2 8 9 14 10 13 8 2 4 12 23 17 16 25 27 31 47 40 40 23 10 11 0 346 318 278 266 258 243 239 243 244 249 257 276 220 208 205 181 165 196 200
11 9 21 9 12 15 11 15 11 10 19 18 19 16 22 29 27 40 37 48 39 33 23 11 347 340 341 318 310 269 243 239 238 239 236 204 214 191 203 180 173 180 203
12 14 18 15 12 16 12 6 18 22 18 20 17 12 19 23 27 23 23 49 42 30 31 26 26 11 354 347 359 336 284 298 269 240 239 206 190 191 171 163 156 149 188